Location: Chmeln�
(49.6483°N, 14.9871°E)
Time: 09:32:25
(UTC+00:00)

CZ-2C R/B - Pass Details

Date: 18 September 2020
Orbit: 640 x 704 km, 98.4° (Epoch: 27 October)

Event Time Altitude Azimuth Distance (km) Brightness Sun altitude
Rises 19:58:08 0° 10° (N) 2,962 7.4 -26.5°
Reaches altitude 10° 20:00:22 10° 6° (N) 2,051 6.6 -26.8°
Maximum altitude 20:04:42 52° 290° (WNW) 809 4.3 -27.4°
Enters shadow 20:05:30 45° 254° (WSW) 882 4.4 -27.5°
